TimeCST,TemperatureF,Dew PointF,Humidity,Sea Level PressureIn,VisibilityMPH,Wind Direction,Wind SpeedMPH,Gust SpeedMPH,PrecipitationIn,Events,Conditions,WindDirDegrees,DateUTC
12:15 AM,16.2,10.8,79,30.25,10.0,Calm,Calm,-,N/A,,Clear,0,2013-01-02 06:15:00
12:35 AM,16.7,11.5,80,30.25,10.0,Calm,Calm,-,N/A,,Clear,0,2013-01-02 06:35:00
12:55 AM,15.8,10.6,80,30.27,10.0,WSW,4.6,-,N/A,,Clear,240,2013-01-02 06:55:00
1:15 AM,15.6,10.9,82,30.26,10.0,Calm,Calm,-,N/A,,Clear,0,2013-01-02 07:15:00
1:35 AM,16.0,11.7,83,30.26,10.0,Calm,Calm,-,N/A,,Clear,0,2013-01-02 07:35:00
1:55 AM,15.8,11.7,84,30.26,10.0,Calm,Calm,-,N/A,,Clear,0,2013-01-02 07:55:00
2:15 AM,14.9,10.9,84,30.26,7.0,Calm,Calm,-,N/A,,Clear,0,2013-01-02 08:15:00
2:35 AM,15.6,11.8,85,30.28,7.0,Calm,Calm,-,N/A,,Clear,0,2013-01-02 08:35:00
2:55 AM,14.9,11.1,85,30.28,7.0,Calm,Calm,-,N/A,,Clear,0,2013-01-02 08:55:00
3:15 AM,14.9,11.1,85,30.26,7.0,Calm,Calm,-,N/A,,Clear,0,2013-01-02 09:15:00
3:35 AM,14.9,10.9,84,30.26,10.0,Calm,Calm,-,N/A,,Clear,0,2013-01-02 09:35:00
3:55 AM,14.5,10.6,84,30.24,7.0,Calm,Calm,-,N/A,,Clear,0,2013-01-02 09:55:00
4:15 AM,14.7,10.9,85,30.25,7.0,Calm,Calm,-,N/A,,Clear,0,2013-01-02 10:15:00
4:35 AM,14.4,10.8,86,30.24,7.0,Calm,Calm,-,N/A,,Clear,0,2013-01-02 10:35:00
4:55 AM,14.0,10.4,86,30.25,7.0,Calm,Calm,-,N/A,,Clear,0,2013-01-02 10:55:00
5:15 AM,15.3,11.8,86,30.26,7.0,Calm,Calm,-,N/A,,Clear,0,2013-01-02 11:15:00
5:35 AM,14.7,11.1,86,30.25,7.0,Calm,Calm,-,N/A,,Clear,0,2013-01-02 11:35:00
6:50 AM,14.0,10.4,86,30.28,10.0,SW,6.9,-,N/A,,Scattered Clouds,220,2013-01-02 12:50:00
7:50 AM,12.2,8.6,85,30.28,6.0,South,6.9,-,N/A,,Scattered Clouds,180,2013-01-02 13:50:00
8:50 AM,17.6,14.0,86,30.28,6.0,South,6.9,-,N/A,,Scattered Clouds,180,2013-01-02 14:50:00
9:50 AM,23.0,17.6,80,30.27,6.0,SSW,6.9,-,N/A,,Scattered Clouds,210,2013-01-02 15:50:00
10:50 AM,24.8,17.6,74,30.26,8.0,SSW,9.2,-,N/A,,Mostly Cloudy,200,2013-01-02 16:50:00
11:50 AM,26.6,15.8,64,30.24,10.0,South,9.2,-,N/A,,Mostly Cloudy,170,2013-01-02 17:50:00
12:50 PM,28.4,15.8,59,30.22,10.0,South,5.8,-,N/A,,Mostly Cloudy,190,2013-01-02 18:50:00
2:50 PM,32.0,14.0,48,30.22,10.0,SSE,5.8,-,N/A,,Mostly Cloudy,160,2013-01-02 20:50:00
3:50 PM,32.0,14.0,48,30.21,10.0,SSE,6.9,-,N/A,,Scattered Clouds,160,2013-01-02 21:50:00
4:45 PM,28.4,15.8,59,30.20,10.0,SE,6.9,-,N/A,,Scattered Clouds,140,2013-01-02 22:45:00
6:45 PM,24.8,15.8,69,30.22,10.0,Calm,Calm,-,N/A,,Clear,0,2013-01-03 00:45:00
7:45 PM,23.0,15.8,74,30.23,10.0,Calm,Calm,-,N/A,,Clear,0,2013-01-03 01:45:00
8:45 PM,24.8,15.8,69,30.22,10.0,Calm,Calm,-,N/A,,Clear,0,2013-01-03 02:45:00
9:15 PM,23.4,15.3,71,30.23,10.0,SSE,4.6,-,N/A,,Clear,160,2013-01-03 03:15:00
9:35 PM,23.9,14.9,69,30.23,10.0,Calm,Calm,-,N/A,,Clear,0,2013-01-03 03:35:00
9:45 PM,23.0,15.8,74,30.23,10.0,Calm,Calm,-,N/A,,Clear,0,2013-01-03 03:45:00
9:55 PM,23.5,15.4,71,30.23,10.0,Calm,Calm,-,N/A,,Clear,0,2013-01-03 03:55:00
10:15 PM,24.6,15.6,69,30.23,10.0,South,3.5,-,N/A,,Clear,180,2013-01-03 04:15:00
10:35 PM,24.8,15.3,67,30.23,10.0,Calm,Calm,-,N/A,,Clear,0,2013-01-03 04:35:00
10:55 PM,22.8,14.7,71,30.23,10.0,Calm,Calm,-,N/A,,Clear,0,2013-01-03 04:55:00
11:15 PM,22.1,14.9,74,30.23,10.0,Calm,Calm,-,N/A,,Clear,0,2013-01-03 05:15:00
11:35 PM,21.4,14.5,75,30.23,10.0,Calm,Calm,-,N/A,,Clear,0,2013-01-03 05:35:00
11:55 PM,22.3,15.1,74,30.22,10.0,Calm,Calm,-,N/A,,Clear,0,2013-01-03 05:55:00